Location: Unspecified
(0.0000°N, 0.0000°E)
Time: 00:04:38
(UTC+00:00)

ISS - Pass Details

Date: 14 February 2020
Orbit: 415 x 422 km, 51.6° (Epoch: 27 February)

Event Time Altitude Azimuth Distance (km) Brightness Sun altitude
Rises 05:24:10 0° 180° (S) 2,354 0.2 -12.2°
Maximum altitude 05:28:30 10° 126° (SE) 1,493 0.2 -11.1°
Drops below altitude 10° 05:29:15 - 114° (ESE) 1,526 0.6 -10.9°
Sets 05:32:49 0° 73° (ENE) 2,352 1.2 -10.1°
